This is the latest recevied weather packets stored in our database for station/object 4S6DRJ-13. If no packets are shown the sender has not sent any weather packets the latest 10 day(s).
| Time | Temp. | Humidity | Pressure | Rain* | Wind** | Luminosity | Snow |
|---|---|---|---|---|---|---|---|
| 1788058979 | 29.44° C | 78% | 1010.6 hPa | 0 mm | 0.89 m/s, 257° | 239 W/m² | - |
| 1788058918 | 29.44° C | 78% | 1010.6 hPa | 0 mm | 0.45 m/s, 259° | 252 W/m² | - |
| 1788058857 | 28.89° C | 78% | 1010.7 hPa | 0 mm | 0.89 m/s, 40° | 250 W/m² | - |
| 1788058796 | 28.89° C | 78% | 1010.8 hPa | 0 mm | 0.45 m/s, 159° | 273 W/m² | - |
| 1788058735 | 28.89° C | 78% | 1010.8 hPa | 0 mm | 1.34 m/s, 238° | 287 W/m² | - |
| 1788058674 | 28.89° C | 78% | 1010.6 hPa | 0 mm | 1.34 m/s, 340° | 292 W/m² | - |
| 1788058613 | 28.89° C | 78% | 1010.7 hPa | 0 mm | 1.34 m/s, 253° | 350 W/m² | - |
| 1788058552 | 28.89° C | 78% | 1010.7 hPa | 0 mm | 0.45 m/s, 310° | 347 W/m² | - |
| 1788058492 | 28.89° C | 77% | 1010.7 hPa | 0 mm | 0.89 m/s, 243° | 339 W/m² | - |
| 1788058430 | 28.89° C | 77% | 1010.6 hPa | 0 mm | 0.89 m/s, 209° | 255 W/m² | - |
| 1788058369 | 28.89° C | 78% | 1010.6 hPa | 0 mm | 0.45 m/s, 235° | 231 W/m² | - |
| 1788058308 | 28.89° C | 78% | 1010.4 hPa | 0 mm | 1.79 m/s, 235° | 201 W/m² | - |
| 1788058247 | 28.89° C | 78% | 1010.4 hPa | 0 mm | 0.45 m/s, 160° | 165 W/m² | - |
| 1788058186 | 28.89° C | 78% | 1010.6 hPa | 0 mm | 2.24 m/s, 214° | 136 W/m² | - |
| 1788058125 | 28.89° C | 78% | 1010.5 hPa | 0 mm | 1.34 m/s, 63° | 168 W/m² | - |
| 1788058064 | 28.89° C | 78% | 1010.5 hPa | 0 mm | 1.34 m/s, 185° | 208 W/m² | - |
| 1788058003 | 28.89° C | 78% | 1010.5 hPa | 0 mm | 1.79 m/s, 213° | 254 W/m² | - |
| 1788057942 | 28.89° C | 78% | 1010.5 hPa | 0 mm | 1.34 m/s, 226° | 261 W/m² | - |
| 1788057881 | 28.89° C | 79% | 1010.6 hPa | 0 mm | 1.79 m/s, 201° | 250 W/m² | - |
| 1788057820 | 28.89° C | 80% | 1010.6 hPa | 0 mm | 0 m/s | 246 W/m² | - |
| 1788057759 | 28.89° C | 80% | 1010.8 hPa | 0 mm | 0.45 m/s, 227° | 237 W/m² | - |
| 1788057698 | 28.89° C | 80% | 1010.5 hPa | 0 mm | 0 m/s | 197 W/m² | - |
| 1788057637 | 28.89° C | 80% | 1010.6 hPa | 0 mm | 1.34 m/s, 200° | 202 W/m² | - |
| 1788057576 | 28.89° C | 79% | 1010.5 hPa | 0 mm | 1.34 m/s, 215° | 173 W/m² | - |
| 1788057515 | 28.89° C | 80% | 1010.6 hPa | 0 mm | 0.89 m/s, 225° | 159 W/m² | - |
* Rain latest hour (hover to see other rain measurements)
** Current wind speed in m/s (hover to see current wind gust speed)